Location: Newark
(35.8833°N, 14.5000°E)
Time: 21:18:49
(UTC+00:00)

OTV 5 (USA 277) - Visible Passes

Search period start: 15 October 2019 00:00
Search period end: 25 October 2019 00:00
Orbit: 310 x 324 km, 54.5° (Epoch: 08 October)

Date Brightness Start Highest point End Pass type
(mag) Time Alt. Az. Time Alt. Az. Time Alt. Az.
17 Oct ? 04:24:01 10° N 04:25:17 12° NE 04:26:33 10° ENE visible
18 Oct ? 04:37:35 10° NNW 04:40:03 29° NE 04:42:29 10° ESE visible
20 Oct ? 03:34:13 17° NNE 03:34:48 18° NE 03:36:49 10° E visible
21 Oct ? 03:48:58 42° N 03:49:28 51° NE 03:52:08 10° ESE visible
22 Oct ? 04:03:51 39° WSW 04:03:59 39° SW 04:06:33 10° SSE visible
23 Oct ? 04:18:52 12° SW 04:18:52 12° SW 04:19:37 10° SSW visible
